Weather History for KNQX - November, 2013

Change the Weather History Date:

Tuesday, November 5, 2013

  Actual Average Record
Temperature  
Mean Temperature 78 °F -  
Max Temperature 80 °F 81 °F 89 °F (1988)
Min Temperature 75 °F 71 °F 62 °F (1982)
Cooling Degree Days 12    
Growing Degree Days 28 (Base 50)    
Moisture  
Dew Point 71 °F    
Average Humidity 79    
Maximum Humidity 83    
Minimum Humidity 74    
Precipitation  
Precipitation 0.00 in - - ()
Sea Level Pressure  
Sea Level Pressure 29.98 in    
Wind  
Wind Speed 16 mph (ENE)    
Max Wind Speed 22 mph    
Max Gust Speed 36 mph    
Visibility 9 miles    
Events Rain    
Averages and records for this station are not official NWS values.
T = Trace of Precipitation, MM = Missing Value Source: NWS Daily Summary

Daily Weather History Graph

Daily Weather History Graph

Search for Another Location

Airport or City:

Trip Planner

Search our weather history database for the weather conditions in past years. The results will help you decide how hot, cold, wet, or windy it might be!

Date:

Astronomy

Nov. 05, 2013 Rise Set
Actual Time 6:36 AM EST 5:44 PM EST
Civil Twilight 6:12 AM EST 6:07 PM EST
Nautical Twilight 5:45 AM EST 6:34 PM EST
Astronomical Twilight 5:18 AM EST 7:01 PM EST
Moon 8:41 AM EST (11/5) 7:53 PM EST (11/5)
Length of Visible Light 11h 55m
Length of Day
11h 07m
Waxing Crescent, 6% of the Moon is Illuminated
Nov 5
Waxing Crescent
Nov 10
First Quarter
Nov 17
Full
Nov 25
Last Quarter
Dec 2
New

Hourly Weather History & Observations

Time (EST) Temp. Heat Index Dew Point Humidity Pressure Visibility Wind Dir Wind Speed Gust Speed Precip Events Conditions
12:53 AM - - - N/A% 29.99 in 10.0 mi NE 16.1 mph 27.6 mph 0.00 in   Overcast
1:53 AM - - - N/A% 29.98 in 10.0 mi NE 16.1 mph 24.2 mph N/A   Overcast
2:53 AM - - - N/A% 29.97 in 10.0 mi NE 15.0 mph 24.2 mph N/A   Overcast
3:53 AM - - - N/A% 29.97 in 10.0 mi NE 12.7 mph 21.9 mph N/A   Overcast
4:53 AM - - - N/A% 29.97 in 10.0 mi ENE 17.3 mph 26.5 mph N/A   Overcast
5:53 AM 75.2 °F - 69.8 °F 83% 29.97 in 10.0 mi NE 16.1 mph 28.8 mph N/A   Mostly Cloudy
6:53 AM 75.2 °F - 69.8 °F 83% 29.99 in 10.0 mi NE 15.0 mph 25.3 mph N/A   Mostly Cloudy
7:53 AM 75.2 °F - 69.8 °F 83% 30.00 in 10.0 mi NE 12.7 mph 26.5 mph N/A   Scattered Clouds
8:53 AM 75.2 °F - 69.8 °F 83% 30.01 in 10.0 mi ENE 16.1 mph 25.3 mph N/A   Scattered Clouds
9:53 AM 78.8 °F - 69.8 °F 74% 30.01 in 10.0 mi ENE 20.7 mph 31.1 mph N/A   Mostly Cloudy
10:53 AM 78.8 °F - 69.8 °F 74% 30.01 in 10.0 mi ENE 20.7 mph 31.1 mph N/A   Mostly Cloudy
11:53 AM 78.8 °F - 71.6 °F 78% 29.99 in 10.0 mi ENE 18.4 mph 34.5 mph N/A   Mostly Cloudy
12:53 PM 78.8 °F - 71.6 °F 78% 29.98 in 8.0 mi ENE 16.1 mph 28.8 mph N/A   Mostly Cloudy
1:47 PM 78.8 °F - 73.4 °F 83% 29.97 in 3.0 mi ENE 17.3 mph 35.7 mph 0.00 in Rain Rain
1:53 PM 78.8 °F - 73.4 °F 83% 29.96 in 7.0 mi ENE 19.6 mph 31.1 mph 0.00 in Rain Light Rain
2:53 PM 80.6 °F 85.4 °F 73.4 °F 79% 29.96 in 10.0 mi ENE 19.6 mph 28.8 mph 0.00 in   Mostly Cloudy
3:25 PM 78.8 °F - 71.6 °F 78% 29.96 in 7.0 mi ENE 16.1 mph 32.2 mph 0.00 in Rain Light Rain
3:29 PM 78.8 °F - 71.6 °F 78% 29.96 in 3.0 mi ENE 18.4 mph 32.2 mph 0.00 in Rain Light Rain
3:38 PM 78.8 °F - 71.6 °F 78% 29.96 in 10.0 mi ENE 17.3 mph 33.4 mph 0.00 in   Overcast
3:53 PM 78.8 °F - 71.6 °F 78% 29.96 in 10.0 mi ENE 21.9 mph 31.1 mph 0.00 in   Overcast
4:53 PM 77.0 °F - 69.8 °F 78% 29.96 in 10.0 mi ENE 13.8 mph 23.0 mph N/A   Overcast
5:53 PM 77.0 °F - 69.8 °F 78% 29.96 in 10.0 mi ENE 15.0 mph 26.5 mph N/A   Overcast
6:53 PM 77.0 °F - 69.8 °F 78% 29.97 in 10.0 mi ENE 16.1 mph 23.0 mph N/A   Mostly Cloudy
7:53 PM 77.0 °F - 69.8 °F 78% 29.98 in 10.0 mi ENE 13.8 mph 24.2 mph N/A   Partly Cloudy
8:53 PM - - - N/A% 30.00 in 10.0 mi ENE 10.4 mph 19.6 mph N/A   Scattered Clouds
9:53 PM 78.8 °F - 71.6 °F 78% 30.00 in 10.0 mi ENE 12.7 mph - N/A   Mostly Cloudy
10:53 PM - - - N/A% 30.00 in 10.0 mi ENE 10.4 mph 18.4 mph N/A   Scattered Clouds
11:53 PM - - - N/A% 29.99 in 10.0 mi ENE 11.5 mph 17.3 mph N/A   Mostly Cloudy